Weather in Brela

Croatia     43°22′02″N   16°55′57″E
temp.,
°C
wind,
m/s
gust,
m/s
humid.,
%
clouds,
%
prec.,
mm/h
press.,
hPa
HPBL,
m
17 april, sat
sat1723:00+10nne544987 0.0 1015146
02:00+9ne5551100 0.0 1014172
05:00+8nne655673 0.0 1013203
08:00+8nne5555100 0.0 1012273
11:00+11nne2345100 0.0 1012577
14:00+12s424876 0.0 1011598
17:00+11sw3253100 0.0 1011508
20:00+11ese2258100 0.1 1012921
18 april, sun
sun1823:00+8ne447496 0.2 1013407
02:00+8ne447922 0.2 1013347
05:00+7ne33735 0.0 1013275
08:00+8ene226799 0.0 1014311
11:00+10s2262100 0.0 1015564
14:00+10s226748 0.0 1015479
17:00+10sse226654 0.0 1015487
20:00+10sse337282 0.1 1016421
19 april, mon
mon1923:00+10ese2373100 0.4 1016283
02:00+9se2280100 2.1 1015304
05:00+8ne4384100 6.8 1014411
08:00+8nne548045 7.4 1014259
11:00+11nne116638 0.1 1013436
14:00+11w436916 0.4 1013655
17:00+11nw566921 0.3 1012725
20:00+11nw457045 0.3 1012456
20 april, tue
tue2023:00+10nw4476100 0.5 1012288
02:00+10n226996 1.5 1012196
05:00+10ene01695 0.1 1012279
08:00+10ene2171100 0.1 1013347
11:00+11ssw327122 0.3 1014595
14:00+11wsw33656 0.4 1015614
17:00+12wsw22615 0.0 1014652
20:00+11ssw11675 0.0 1016279
21 april, wed
wed2123:00+11sse337214 0.0 1018570
02:00+11ese337524 0.1 1018312
05:00+11ese33692 0.0 1018359
08:00+11ese23662 0.0 1019301
11:00+12s33645 0.0 1020530
14:00+12sse34745 0.0 1020441
17:00+13sse44744 0.0 1019493
20:00+12se44785 0.0 1020314